FW9487 Weather Reports


time (UTC)temp
C
wind
direction
speed
KPH
gust
KPH
rain 1hr
cm
rain 24hr
cm
rain mn
cm
humidity
%
barometer
mb
20260506193019 13 230 4.8 20.9 0.03 0.13 0.13 88 1009.0
20260506192510 13 246 3.2 14.5 0.03 0.13 0.13 88 1008.9
20260506192010 13 185 6.4 14.5 0.03 0.13 0.13 88 1009.0
20260506191526 13 218 4.8 19.3 0.03 0.13 0.13 89 1009.3
20260506191010 13 84 6.4 19.3 0.03 0.13 0.13 88 1009.1
20260506190510 13 333 4.8 20.9 0.05 0.13 0.13 88 1009.2
20260506190026 14 238 3.2 20.9 0.05 0.13 0.13 89 1009.1
20260506185512 14 244 3.2 17.7 0.05 0.10 0.10 89 1009.2
20260506185011 14 228 4.8 20.9 0.08 0.10 0.10 88 1009.3
20260506184520 14 189 6.4 20.9 0.08 0.10 0.10 89 1009.5
20260506184010 13 200 4.8 22.5 0.08 0.10 0.10 89 1009.4
20260506183509 13 248 4.8 22.5 0.10 0.10 0.10 89 1009.5
20260506183024 13 269 4.8 14.5 0.10 0.10 0.10 89 1009.7
20260506182507 13 317 3.2 14.5 0.10 0.10 0.10 89 1009.7
20260506182012 13 209 4.8 17.7 0.10 0.10 0.10 90 1009.9
20260506181525 13 155 4.8 17.7 0.10 0.10 0.10 90 1009.8
20260506181010 13 279 3.2 17.7 0.10 0.10 0.10 90 1010.0
20260506180508 13 197 3.2 14.5 0.08 0.08 0.08 89 1010.2
20260506180018 13 257 4.8 14.5 0.08 0.08 0.08 89 1010.1
20260506175503 13 161 6.4 14.5 0.05 0.05 0.05 89 1010.2
20260506175003 13 180 3.2 12.9 0.03 0.03 0.03 89 1010.2
20260506174504 13 213 4.8 17.7 0.03 0.03 0.03 89 1010.3
20260506174003 13 206 1.6 17.7 0.03 0.03 0.03 88 1010.4
20260506173504 13 188 3.2 16.1 0.00 0.00 0.00 88 1010.5
20260506173006 13 165 3.2 16.1 0.00 0.00 0.00 88 1010.6
20260506172503 13 282 3.2 14.5 0.00 0.00 0.00 87 1010.9
20260506172003 13 214 4.8 14.5 0.00 0.00 0.00 87 1010.7
20260506171508 13 178 3.2 12.9 0.00 0.00 0.00 86 1010.8
20260506171004 13 228 4.8 24.1 0.00 0.00 0.00 85 1010.9
20260506170505 14 254 3.2 24.1 0.00 0.00 0.00 84 1010.9
20260506170015 14 138 6.4 17.7 0.00 0.00 0.00 84 1010.9
20260506165503 14 244 4.8 17.7 0.00 0.00 0.00 84 1010.9
20260506165003 14 144 3.2 16.1 0.00 0.00 0.00 84 1011.0
20260506164504 15 189 6.4 17.7 0.00 0.00 0.00 83 1011.0
20260506164005 15 259 4.8 17.7 0.00 0.00 0.00 82 1011.1
20260506163503 15 180 6.4 16.1 0.00 0.00 0.00 81 1011.1
20260506163008 15 287 4.8 16.1 0.00 0.00 0.00 81 1011.1
20260506162503 15 111 1.6 17.7 0.00 0.00 0.00 82 1011.2
20260506162005 15 248 8.0 17.7 0.00 0.00 0.00 82 1011.2
20260506161515 15 246 3.2 22.5 0.00 0.00 0.00 82 1011.2
20260506161007 15 168 4.8 22.5 0.00 0.00 0.00 82 1011.3
20260506160504 15 215 4.8 12.9 0.00 0.00 0.00 82 1011.3
20260506160010 15 271 3.2 19.3 0.00 0.00 0.00 81 1011.3
20260506155505 15 298 3.2 20.9 0.00 0.00 0.00 81 1011.4
20260506155003 15 209 4.8 20.9 0.00 0.00 0.00 81 1011.5
20260506154505 15 261 3.2 17.7 0.00 0.00 0.00 80 1011.4
20260506154005 15 200 3.2 16.1 0.00 0.00 0.00 80 1011.7
20260506153504 15 211 1.6 16.1 0.00 0.00 0.00 80 1011.8
20260506153010 15 211 3.2 16.1 0.00 0.00 0.00 81 1011.9
20260506152503 15 220 6.4 16.1 0.00 0.00 0.00 81 1012.0
20260506152007 15 281 3.2 22.5 0.00 0.00 0.00 81 1011.9
20260506151516 15 249 6.4 30.6 0.00 0.00 0.00 81 1011.8
20260506151007 15 285 8.0 30.6 0.00 0.00 0.00 81 1011.8
20260506150505 15 212 6.4 19.3 0.00 0.00 0.00 82 1011.6
20260506150004 15 233 1.6 19.3 0.00 0.00 0.00 82 1011.8
20260506145503 15 206 6.4 19.3 0.00 0.00 0.00 82 1011.7
20260506145004 15 185 3.2 17.7 0.00 0.00 0.00 81 1011.9
20260506144506 15 236 4.8 17.7 0.00 0.00 0.00 81 1011.9
20260506144004 15 227 3.2 19.3 0.00 0.00 0.00 80 1012.1
20260506143505 15 188 3.2 22.5 0.00 0.00 0.00 79 1012.2
20260506143011 16 208 0.0 22.5 0.00 0.00 0.00 78 1012.2
20260506142507 16 184 4.8 14.5 0.00 0.00 0.00 79 1012.1
20260506142007 16 229 4.8 14.5 0.00 0.00 0.00 79 1012.1
20260506141520 16 148 3.2 12.9 0.00 0.00 0.00 78 1012.1
20260506141011 16 318 3.2 12.9 0.00 0.00 0.00 79 1012.1
20260506140503 16 312 0.0 12.9 0.00 0.00 0.00 80 1012.3
20260506140005 15 238 1.6 16.1 0.00 0.00 0.00 81 1012.2
20260506135503 15 226 4.8 14.5 0.00 0.00 0.00 80 1012.3
20260506135003 15 286 3.2 14.5 0.00 0.00 0.00 80 1012.2
20260506134509 15 207 3.2 14.5 0.00 0.00 0.00 80 1012.2
20260506134009 15 238 3.2 14.5 0.00 0.00 0.00 80 1012.1
20260506133506 15 225 3.2 11.3 0.00 0.00 0.00 81 1012.1
20260506133014 15 319 3.2 16.1 0.00 0.00 0.00 82 1012.1
20260506132506 15 352 1.6 16.1 0.00 0.00 0.00 82 1012.1
20260506132013 15 238 3.2 12.9 0.00 0.00 0.00 82 1012.0
20260506131522 15 246 3.2 16.1 0.00 0.00 0.00 83 1012.0
20260506131008 14 168 4.8 19.3 0.00 0.00 0.00 82 1012.1
20260506130504 15 236 6.4 19.3 0.00 0.00 0.00 81 1012.1
20260506130006 15 236 0.0 17.7 0.00 0.00 0.00 82 1011.9
20260506125504 15 167 0.0 14.5 0.00 0.00 0.00 82 1012.0
20260506125004 15 200 3.2 14.5 0.00 0.00 0.00 82 1012.1
20260506124512 15 241 3.2 16.1 0.00 0.00 0.00 82 1012.1
20260506124004 15 294 0.0 16.1 0.00 0.00 0.00 82 1012.2
20260506123508 15 188 0.0 17.7 0.00 0.00 0.00 83 1012.2
20260506123022 15 270 3.2 17.7 0.00 0.00 0.00 82 1012.4
20260506122509 15 263 4.8 12.9 0.00 0.00 0.00 81 1012.5
20260506122006 15 295 1.6 11.3 0.00 0.00 0.00 82 1012.5
20260506121522 15 250 3.2 22.5 0.00 0.00 0.00 82 1012.4
20260506121003 15 257 6.4 14.5 0.00 0.00 0.00 83 1012.3
20260506120504 15 197 3.2 17.7 0.00 0.00 0.00 83 1012.3
20260506120009 15 225 3.2 17.7 0.00 0.00 0.00 83 1012.3
20260506115505 15 207 4.8 9.7 0.00 0.00 0.00 83 1012.1
20260506115005 15 257 1.6 17.7 0.00 0.00 0.00 84 1012.2
20260506114516 14 250 1.6 17.7 0.00 0.00 0.00 84 1012.1
20260506114007 15 188 3.2 16.1 0.00 0.00 0.00 84 1012.1
20260506113508 14 253 3.2 16.1 0.00 0.00 0.00 85 1012.1
20260506113022 14 252 4.8 12.9 0.00 0.00 0.00 85 1012.2
20260506112511 14 272 1.6 6.4 0.00 0.00 0.00 86 1012.3
20260506112010 14 250 1.6 14.5 0.00 0.00 0.00 86 1012.2
20260506111526 13 235 1.6 14.5 0.00 0.00 0.00 86 1012.2
20260506111003 13 251 0.0 14.5 0.00 0.00 0.00 87 1012.4
20260506110504 13 184 1.6 14.5 0.00 0.00 0.00 86 1012.2
20260506110008 13 248 3.2 17.7 0.00 0.00 0.00 86 1012.1
20260506105504 13 251 3.2 17.7 0.00 0.00 0.00 87 1012.2
20260506105009 13 163 3.2 9.7 0.00 0.00 0.00 87 1012.2
20260506104518 13 174 1.6 9.7 0.00 0.00 0.00 87 1012.1
20260506104007 13 231 3.2 9.7 0.00 0.00 0.00 88 1012.0
20260506103509 13 284 1.6 12.9 0.00 0.00 0.00 88 1012.1
20260506103028 13 312 3.2 14.5 0.00 0.00 0.00 88 1012.2
20260506102512 13 248 3.2 16.1 0.00 0.00 0.00 88 1012.1
20260506102011 13 227 3.2 16.1 0.00 0.00 0.00 88 1012.1
20260506101509 13 243 3.2 11.3 0.00 0.00 0.00 88 1012.1
20260506101002 13 251 0.0 6.4 0.00 0.00 0.00 88 1012.0
20260506100503 13 225 1.6 6.4 0.00 0.00 0.00 88 1012.2
20260506100014 13 262 1.6 9.7 0.00 0.00 0.00 88 1012.1
20260506095507 13 258 1.6 19.3 0.00 0.00 0.00 88 1012.1
20260506095008 13 235 3.2 19.3 0.00 0.00 0.00 88 1012.0
20260506094530 13 151 1.6 12.9 0.00 0.00 0.00 88 1011.9
20260506094009 13 157 3.2 11.3 0.00 0.00 0.00 88 1012.0
20260506093509 13 270 3.2 11.3 0.00 0.00 0.00 88 1012.0
20260506093040 13 232 0.0 11.3 0.00 0.00 0.00 88 1012.0
20260506092510 13 254 1.6 9.7 0.00 0.00 0.00 88 1012.0
20260506092014 13 252 1.6 9.7 0.00 0.00 0.00 88 1012.0
20260506091512 13 254 1.6 6.4 0.00 0.00 0.00 88 1012.0
20260506091002 13 286 3.2 6.4 0.00 0.00 0.00 88 1012.2
20260506090506 13 234 0.0 8.0 0.00 0.00 0.00 88 1012.1
20260506090018 13 273 0.0 11.3 0.00 0.00 0.00 88 1012.2
20260506085507 13 259 3.2 11.3 0.00 0.00 0.00 88 1012.2
20260506085007 13 323 3.2 9.7 0.00 0.00 0.00 88 1012.3
20260506084521 13 250 1.6 9.7 0.00 0.00 0.00 87 1012.2
20260506084009 13 251 3.2 8.0 0.00 0.00 0.00 87 1012.3
20260506083509 13 163 3.2 8.0 0.00 0.00 0.00 87 1012.4
20260506083025 13 243 0.0 11.3 0.00 0.00 0.00 87 1012.3
20260506082513 13 360 1.6 12.9 0.00 0.00 0.00 87 1012.3
20260506082003 13 317 1.6 17.7 0.00 0.00 0.00 87 1012.4
20260506081512 13 275 3.2 17.7 0.00 0.00 0.00 86 1012.5
20260506081006 13 281 1.6 12.9 0.00 0.00 0.00 86 1012.5
20260506080508 13 232 1.6 9.7 0.00 0.00 0.00 86 1012.4
20260506073514 13 256 1.6 16.1 0.00 0.00 0.00 85 1012.6
20260506073028 13 243 4.8 16.1 0.00 0.00 0.00 85 1012.7
20260506072512 13 315 3.2 11.3 0.00 0.00 0.00 85 1012.7
20260506072006 13 331 3.2 9.7 0.00 0.00 0.00 85 1012.7
20260506071516 13 238 1.6 16.1 0.00 0.00 0.00 84 1012.8
20260506071008 13 247 1.6 16.1 0.00 0.00 0.00 84 1012.8
20260506070506 13 242 3.2 11.3 0.00 0.00 0.00 84 1012.6
20260506062511 13 259 1.6 11.3 0.00 0.00 0.00 84 1012.8
20260506062008 13 195 1.6 11.3 0.00 0.00 0.00 84 1012.8
20260506061521 13 200 3.2 11.3 0.00 0.00 0.00 83 1012.7
20260506061012 13 246 3.2 9.7 0.00 0.00 0.00 83 1012.5
20260506060511 13 185 3.2 9.7 0.00 0.00 0.00 83 1012.5
20260506051004 14 210 1.6 12.9 0.00 0.00 0.00 82 1012.9
20260506050503 14 221 0.0 14.5 0.00 0.00 0.00 82 1012.8
20260506045004 14 223 3.2 16.1 0.00 0.00 0.00 81 1013.0
20260506044520 15 229 1.6 16.1 0.00 0.00 0.00 81 1012.9
20260506044005 14 290 3.2 11.3 0.00 0.00 0.00 81 1013.1
20260506043508 14 256 4.8 16.1 0.00 0.00 0.00 81 1013.0
20260506043016 14 269 1.6 16.1 0.00 0.00 0.00 81 1013.0
20260506042506 14 294 3.2 9.7 0.00 0.00 0.00 81 1013.0
20260506042011 14 24 1.6 9.7 0.00 0.00 0.00 81 1013.0
20260506041525 14 130 3.2 11.3 0.00 0.00 0.00 81 1013.0
20260506041003 14 242 1.6 12.9 0.00 0.00 0.00 81 1013.1
20260506040504 14 281 3.2 12.9 0.00 0.00 0.00 81 1013.1
20260506040006 14 240 3.2 9.7 0.00 0.00 0.00 81 1013.0
20260506035506 14 201 3.2 11.3 0.00 0.00 0.00 81 1013.0
20260506035006 14 138 0.0 14.5 0.00 0.00 0.00 81 1013.1
20260506034515 14 195 3.2 16.1 0.00 0.00 0.00 81 1013.2
20260506034008 14 232 3.2 16.1 0.00 0.00 0.00 81 1013.2
20260506033507 14 190 1.6 14.5 0.00 0.00 0.00 81 1013.2
20260506033017 14 187 3.2 16.1 0.00 0.00 0.00 81 1013.2
20260506032507 14 239 1.6 16.1 0.00 0.00 0.00 81 1013.2
20260506032007 13 300 1.6 17.7 0.00 0.00 0.00 81 1013.2
20260506031505 13 225 4.8 22.5 0.00 0.00 0.00 81 1013.3
20260506031003 13 218 3.2 24.1 0.00 0.00 0.00 81 1013.2
20260506030504 13 261 6.4 24.1 0.00 0.00 0.00 81 1013.1
20260506030008 13 286 1.6 16.1 0.00 0.00 0.00 81 1013.2
20260506025509 13 264 4.8 16.1 0.00 0.00 0.00 81 1013.3
20260506025005 13 265 1.6 16.1 0.00 0.00 0.00 81 1013.3
20260506024518 14 224 4.8 16.1 0.00 0.00 0.00 81 1013.3
20260506024007 14 300 3.2 14.5 0.00 0.00 0.00 81 1013.4
20260506023508 14 222 3.2 14.5 0.00 0.00 0.00 81 1013.4
20260506023023 14 185 3.2 17.7 0.00 0.00 0.00 81 1013.3
20260506022509 14 213 3.2 17.7 0.00 0.00 0.00 80 1013.2
20260506022009 14 235 3.2 11.3 0.00 0.00 0.00 80 1013.3
20260506021504 14 173 1.6 9.7 0.00 0.00 0.00 80 1013.1
20260506021005 14 229 1.6 9.7 0.00 0.00 0.00 80 1013.1
20260506020508 14 321 1.6 14.5 0.00 0.00 0.00 80 1013.2
20260506020012 14 114 1.6 14.5 0.00 0.00 0.00 80 1013.1
20260506015504 14 231 0.0 8.0 0.00 0.00 0.00 80 1013.2
20260506015004 14 154 1.6 8.0 0.00 0.00 0.00 80 1013.2
20260506014520 14 214 1.6 8.0 0.00 0.00 0.00 79 1013.1
20260506014009 14 269 1.6 12.9 0.00 0.00 0.00 79 1013.1
20260506013507 14 178 0.0 14.5 0.00 0.00 0.00 78 1012.9
20260506013027 14 227 1.6 14.5 0.00 0.00 0.00 78 1012.9
20260506012509 14 232 3.2 14.5 0.00 0.00 0.00 77 1012.9
20260506012006 14 336 6.4 12.9 0.00 0.00 0.00 77 1012.7
20260506011509 14 16 4.8 14.5 0.00 0.00 0.00 77 1012.7
20260506011003 15 225 4.8 14.5 0.00 0.00 0.00 76 1012.6
20260506010503 15 211 3.2 11.3 0.00 0.00 0.00 76 1012.6
20260506010012 15 265 3.2 12.9 0.00 0.00 0.00 76 1012.6
20260506005505 15 242 1.6 19.3 0.00 0.00 0.00 75 1012.7
20260506005010 15 280 4.8 19.3 0.00 0.00 0.00 75 1012.4
20260506004520 15 209 4.8 16.1 0.00 0.00 0.00 74 1012.4
20260506004010 15 230 3.2 17.7 0.00 0.00 0.00 74 1012.3
20260506003509 15 229 1.6 17.7 0.00 0.00 0.00 74 1012.2
20260506003024 15 290 4.8 14.5 0.00 0.00 0.00 74 1012.2
20260506002508 15 204 4.8 16.1 0.00 0.00 0.00 74 1012.1
20260506002004 15 283 4.8 17.7 0.00 0.00 0.00 74 1012.1
20260506001512 15 299 4.8 17.7 0.00 0.00 0.00 74 1011.9
20260506001005 15 277 4.8 17.7 0.00 0.00 0.00 74 1012.0
20260506000504 15 255 4.8 17.7 0.00 0.00 0.00 75 1012.0
20260506000014 15 242 3.2 17.7 0.00 0.00 0.00 75 1011.9
20260505235507 15 205 4.8 16.1 0.00 0.00 0.00 75 1011.8
20260505235007 15 278 3.2 16.1 0.00 0.00 0.00 75 1011.2
20260505234546 15 286 4.8 16.1 0.00 0.00 0.00 75 1011.4
20260505234009 15 267 4.8 16.1 0.00 0.00 0.00 75 1011.4
20260505233508 15 130 4.8 16.1 0.00 0.00 0.00 75 1011.4
20260505233028 15 11 3.2 14.5 0.00 0.00 0.00 75 1011.3
20260505232506 15 202 3.2 14.5 0.00 0.00 0.00 75 1011.2
20260505232004 15 259 4.8 17.7 0.00 0.00 0.00 75 1011.2
20260505231515 15 259 4.8 17.7 0.00 0.00 0.00 76 1011.3
20260505231004 15 226 8.0 19.3 0.00 0.00 0.00 75 1011.4
20260505230505 15 232 3.2 19.3 0.00 0.00 0.00 75 1011.2
20260505230020 15 324 3.2 19.3 0.00 0.00 0.00 75 1011.2
20260505225509 15 171 4.8 19.3 0.00 0.00 0.00 75 1011.2
20260505225011 15 345 3.2 17.7 0.00 0.00 0.00 74 1011.0
20260505224529 15 222 6.4 20.9 0.00 0.00 0.00 74 1011.0
20260505224005 15 165 4.8 25.7 0.00 0.00 0.00 74 1011.0
20260505223504 15 250 4.8 25.7 0.00 0.00 0.00 73 1011.1
20260505223012 16 187 6.4 19.3 0.00 0.00 0.00 73 1011.1
20260505222505 16 219 4.8 25.7 0.00 0.00 0.00 73 1010.9
20260505222008 16 194 8.0 25.7 0.00 0.00 0.00 73 1010.9
20260505221517 16 86 6.4 20.9 0.00 0.00 0.00 73 1011.1
20260505221005 16 181 4.8 19.3 0.00 0.00 0.00 73 1010.9
20260505220507 15 166 3.2 25.7 0.00 0.00 0.00 74 1010.8
20260505220026 15 188 4.8 25.7 0.00 0.00 0.00 73 1010.9
20260505215508 15 184 9.7 25.7 0.00 0.00 0.00 72 1010.8
20260505215005 16 254 4.8 14.5 0.00 0.00 0.00 72 1010.7
20260505214504 16 235 3.2 14.5 0.00 0.00 0.00 72 1010.7
20260505214005 16 111 3.2 19.3 0.00 0.00 0.00 71 1010.6
20260505213506 16 264 6.4 19.3 0.00 0.00 0.00 71 1010.7
20260505213013 16 292 3.2 16.1 0.00 0.00 0.00 71 1010.4
20260505212506 16 65 4.8 20.9 0.00 0.00 0.00 70 1010.6
20260505212009 16 224 4.8 20.9 0.00 0.00 0.00 70 1010.4
20260505211518 16 246 6.4 22.5 0.00 0.00 0.00 70 1010.3
20260505211009 16 218 4.8 24.1 0.00 0.00 0.00 69 1010.2
20260505210510 16 200 4.8 24.1 0.00 0.00 0.00 69 1010.2
20260505210028 16 106 6.4 19.3 0.00 0.00 0.00 68 1010.4
20260505205504 17 265 4.8 14.5 0.00 0.00 0.00 69 1010.2
20260505205004 16 191 3.2 14.5 0.00 0.00 0.00 70 1010.3
20260505204513 16 360 4.8 14.5 0.00 0.00 0.00 70 1010.4
20260505204004 16 290 4.8 14.5 0.00 0.00 0.00 69 1010.4
20260505203505 17 135 4.8 19.3 0.00 0.00 0.00 69 1010.6
20260505203012 17 221 3.2 19.3 0.00 0.00 0.00 69 1010.6
20260505202507 17 140 4.8 16.1 0.00 0.00 0.00 68 1010.7
20260505202009 17 186 4.8 16.1 0.00 0.00 0.00 69 1010.6
20260505201527 17 223 3.2 12.9 0.00 0.00 0.00 69 1010.8
20260505201009 17 200 3.2 12.9 0.00 0.00 0.00 69 1010.8
20260505200510 17 186 3.2 12.9 0.00 0.00 0.00 70 1010.8
20260505200026 17 261 4.8 12.9 0.00 0.00 0.00 70 1011.0
20260505195502 17 159 0.0 12.9 0.00 0.00 0.00 70 1010.9
20260505195005 17 224 4.8 12.9 0.00 0.00 0.00 70 1011.0
20260505194513 17 251 1.6 19.3 0.00 0.00 0.00 68 1011.2
20260505194007 17 197 6.4 19.3 0.00 0.00 0.00 68 1011.2
20260505193506 17 240 0.0 19.3 0.00 0.00 0.00 70 1011.1